Flag for Argentina Weather past 2 weeks in Tucumán, Tucumán, Argentina

Now
70 °F

Passing clouds.


Feels Like: 70 °F
Forecast: N/A
Wind: 6 mph from Southwest

Location: Tucuman Aerodrome


UV Index: N/A

Visibility: 5 mi


Pressure: 29.95 "Hg

Humidity: 83%

Dew point: 64 °F

Location of TucumánLocation

Historic Weather in Tucumán

°F

Tucumán temperature yesterday

Maximum temperature yesterday: 77 °F (at 5:00 PM)
Minimum temperature yesterday: 61 °F (at 1:00 AM)
Average temperature yesterday: 68 °F

Past Weeks' High & Low Weather Summary

 TemperatureHumidityPressure
High86 °F (Apr 7, 6:00 PM)100% (Apr 7, 8:00 AM)30.39 "Hg (Apr 7, 8:00 AM)
Low46 °F (Apr 14, 6:00 AM)39% (Apr 9, 4:00 PM)29.53 "Hg (Apr 7, 4:00 PM)
Average67 °F78%29.97 "Hg
* Reported Apr 5 7:00 PM — Apr 20 7:00 PM, Tucumán, Weather by CustomWeather, © 2014

Note: Actual official high and low records may vary slightly from our data, if they occured in-between our weather recording intervals... More about our weather records

Advertising

Historic Weather Conditions — Data for Previous 24 hours

 ConditionsComfort  
Time TempWeatherWind HumidityBarometerVisibility
7:00 PM
Apr 20
70 °FPassing clouds.6 mph83%29.95 "Hg5 mi
6:00 PM73 °FPassing clouds.6 mph78%29.95 "Hg5 mi
5:00 PM73 °FBroken clouds.7 mph78%29.95 "Hg6 mi
4:00 PM79 °FBroken clouds.7 mph58%29.98 "Hg6 mi
3:00 PM77 °FPartly sunny.8 mph65%30.01 "HgN/A
2:00 PM77 °FBroken clouds.6 mph65%30.04 "HgN/A
1:00 PM75 °FBroken clouds.6 mph65%30.07 "HgN/A
12:00 PM73 °FBroken clouds.6 mph74%30.09 "Hg5 mi
11:00 AM70 °FBroken clouds.2 mph83%30.12 "Hg5 mi
10:00 AM66 °FBroken clouds.5 mph94%30.12 "Hg5 mi
9:00 AM64 °FBroken clouds.2 mph94%30.12 "Hg5 mi
8:00 AM64 °FBroken clouds.5 mph94%30.12 "Hg5 mi
7:00 AM64 °FSunny.5 mph94%30.12 "Hg10 mi
6:00 AM64 °FClear.5 mph94%30.09 "Hg10 mi
5:00 AM64 °FClear.2 mph88%30.12 "Hg10 mi
3:00 AM66 °FClear.2 mph83%30.12 "Hg10 mi
2:00 AM66 °FClear.2 mph83%30.12 "Hg10 mi
1:00 AM66 °FClear.5 mph83%30.12 "Hg10 mi
12:00 AM66 °FClear.7 mph83%30.12 "Hg10 mi
11:00 PM
Apr 19
64 °FClear.No wind88%30.09 "Hg10 mi
10:00 PM66 °FClear.2 mph83%30.09 "Hg10 mi
9:00 PM68 °FClear.2 mph83%30.07 "Hg10 mi
8:00 PM70 °FClear.3 mph78%30.07 "Hg10 mi
Weather by CustomWeather, © 2014

See weather overview